Regional Weather Roundup
Issued by NWS

Home | Current Version | Previous Version | Graphics & Text | Print | Product List | Glossary Off
Versions: 1 2 3 4 5 6 7 8 9 10 11 12 13 14 15 16 17 18 19 20 21 22 23 24 25 26 27 28 29 30 31 32 33 34 35 36 37 38 39 40 41 42 43 44 45 46 47 48 49 50

000
ASUS43 KLSX 220857
RWRMO

WEATHER SUMMARY FOR MISSOURI
NATIONAL WEATHER SERVICE SPRINGFIELD MO
400 AM CDT TUE AUG 22 2017

NOTE: "FAIR" INDICATES FEW OR NO CLOUDS BELOW 12,000 FEET WITH NO
       SIGNIFICANT WEATHER AND/OR OBSTRUCTIONS TO VISIBILITY.
       CURRENT SKY AND/OR WEATHER CONDITIONS ARE NOT AVAILABLE FOR
       CHILLICOTHE AND FARMINGTON.

MOZ001>031-035>038-043-044-053-054-221000-
...NORTHERN AND WESTERN MISSOURI...

CITY           SKY/WX    TMP DP  RH WIND       PRES   REMARKS
KANSAS CTY INT LGT RAIN  67  65  93 E13       29.97R
LEE`S SUMMIT   RAIN      66  66 100 MISG      30.02S FOG
ST JOSEPH      CLOUDY    65  65 100 N5        29.99R
CHILLICOTHE      N/A     69  68  96 SE7       29.94F

$$
MOZ066>068-077>081-088>096-101>105-221000-
...SOUTHWEST MISSOURI...

CITY           SKY/WX    TMP DP  RH WIND       PRES   REMARKS
SPRINGFIELD    CLOUDY    78  73  84 SW10      29.99F
JOPLIN         CLOUDY    81  74  79 SW18G25   29.98S

$$
MOZ032>034-039>042-045>050-055>058-069>072-221000-
...CENTRAL MISSOURI...

CITY           SKY/WX    TMP DP  RH WIND       PRES   REMARKS
COLUMBIA       HVY RAIN  70  70 100 NW3       29.99F FOG
JEFFERSON CITY HVY RAIN  71  71 100 NW6       29.99R FOG
ROLLA          CLOUDY    74  73  97 SW5       29.99S
SEDALIA        HVY RAIN  71  71 100 VRB6      30.00R FOG
WARRENSBURG    RAIN      68  68 100 CALM      29.99R

$$
MOZ051-052-059>065-221000-
...EAST CENTRAL MISSOURI...

CITY           SKY/WX    TMP DP  RH WIND       PRES   REMARKS
ST LOUIS INTL  CLOUDY    79  71  76 NW20G31   29.95S

$$
MOZ072>076-082>087-097>100-106>115-221000-
...SOUTH CENTRAL AND SOUTHEAST MISSOURI...

CITY           SKY/WX    TMP DP  RH WIND       PRES   REMARKS
CAPE GIRARDEAU MOCLDY    76  73  91 SW6       29.98S
POPLAR BLUFF   PTCLDY    77  75  93 SW7       29.98F
WEST PLAINS    PTCLDY    77  72  84 SW9       30.03F

$$


USA.gov is the U.S. government's official web portal to all federal, state and local government web resources and services.